QAK845 MMAS-MMVR

Flight info

Callsign QAK845
Flight time N/A
Altitude 37000
Route UKIRO1A UKIRO UJ33 QET UT162 TOREO DCT CALIZ/N0362F170 T70 ATUKA DCT UKUNO/N0454F370 UT108 TEVET TEVET1A
Aircraft B738/M-SDE2E3FGHIRWXY/LB1

Departure

Time 2026-04-30 03:43
Airport Aguascalientes International Airport (MMAS)

Arrival

Time N/A
Airport General Heriberto Jara International Airport (MMVR)
Time Latitude Longitude Altitude Speed Heading
2026-04-30 03:17 21.70112 -102.31475 6116 ft 0 kts 92°
2026-04-30 03:35 21.70113 -102.31496 6116 ft 4 kts 92°
2026-04-30 03:35 21.70114 -102.31510 6116 ft 2 kts 94°
2026-04-30 03:35 21.70115 -102.31523 6116 ft 1 kts 107°
2026-04-30 03:35 21.70120 -102.31534 6116 ft 1 kts 126°
2026-04-30 03:36 21.70126 -102.31541 6116 ft 1 kts 142°
2026-04-30 03:36 21.70132 -102.31545 6116 ft 0 kts 156°
2026-04-30 03:37 21.70128 -102.31543 6116 ft 0 kts 150°
2026-04-30 03:37 21.70125 -102.31536 6116 ft 2 kts 95°
2026-04-30 03:38 21.70173 -102.31523 6116 ft 15 kts 347°
2026-04-30 03:38 21.70258 -102.31628 6116 ft 26 kts 327°
2026-04-30 03:38 21.70400 -102.31707 6116 ft 28 kts 333°
2026-04-30 03:39 21.70872 -102.31773 6116 ft 27 kts
2026-04-30 03:39 21.71031 -102.31763 6116 ft 25 kts
2026-04-30 03:40 21.71393 -102.31743 6116 ft 0 kts 191°
2026-04-30 03:40 21.71392 -102.31743 6116 ft 0 kts 190°
2026-04-30 03:41 21.71391 -102.31743 6116 ft 0 kts 190°
2026-04-30 03:41 21.71366 -102.31747 6116 ft 10 kts 187°
2026-04-30 03:41 21.71198 -102.31757 6116 ft 53 kts 182°
2026-04-30 03:41 21.70707 -102.31780 6117 ft 116 kts 183°
2026-04-30 03:42 21.66157 -102.31974 6660 ft 188 kts 183°
2026-04-30 03:43 21.64928 -102.32044 7025 ft 193 kts 183°
2026-04-30 03:43 21.63907 -102.31915 7294 ft 196 kts 161°
2026-04-30 03:43 21.62920 -102.31268 7622 ft 197 kts 135°
2026-04-30 03:43 21.62397 -102.30508 7868 ft 198 kts 116°
2026-04-30 03:44 21.62042 -102.29103 8262 ft 199 kts 98°